Time,TemperatureF,DewpointF,PressureIn,WindDirection,WindDirectionDegrees,WindSpeedMPH,WindSpeedGustMPH,Humidity,HourlyPrecipIn,Conditions,Clouds,dailyrainin,SoftwareType,DateUTC
2013-03-23 00:00:00,38.0,36.0,30.41,East,80,5.0,6.0,94,-99.99,,,-99.99,,2013-03-23 07:00:00,
2013-03-23 00:21:00,38.0,36.0,30.41,East,80,5.0,6.0,94,-99.99,,,-99.99,,2013-03-23 07:21:00,
2013-03-23 00:32:00,38.0,36.0,30.41,East,80,5.0,6.0,94,-99.99,,,-99.99,,2013-03-23 07:32:00,
2013-03-23 00:41:00,38.0,36.0,30.41,East,80,5.0,6.0,94,-99.99,,,-99.99,,2013-03-23 07:41:00,
2013-03-23 00:52:00,38.0,36.0,30.41,East,80,5.0,6.0,94,-99.99,,,-99.99,,2013-03-23 07:52:00,
2013-03-23 01:00:00,36.0,35.0,30.41,ENE,70,6.0,7.0,95,-99.99,,,-99.99,,2013-03-23 08:00:00,
2013-03-23 01:22:00,36.0,35.0,30.41,ENE,70,6.0,7.0,95,-99.99,,,-99.99,,2013-03-23 08:22:00,
2013-03-23 01:31:00,36.0,35.0,30.41,ENE,70,6.0,7.0,95,-99.99,,,-99.99,,2013-03-23 08:31:00,
2013-03-23 01:41:00,36.0,35.0,30.41,ENE,70,6.0,7.0,95,-99.99,,,-99.99,,2013-03-23 08:41:00,
2013-03-23 01:51:00,36.0,35.0,30.41,ENE,70,6.0,7.0,95,-99.99,,,-99.99,,2013-03-23 08:51:00,
2013-03-23 02:00:00,35.0,35.0,30.40,ENE,70,6.0,7.0,97,-99.99,,,-99.99,,2013-03-23 09:00:00,
2013-03-23 02:21:00,35.0,35.0,30.40,ENE,70,6.0,7.0,97,-99.99,,,-99.99,,2013-03-23 09:21:00,
2013-03-23 02:32:00,35.0,35.0,30.40,ENE,70,6.0,7.0,97,-99.99,,,-99.99,,2013-03-23 09:32:00,
2013-03-23 02:42:00,35.0,35.0,30.40,ENE,70,6.0,7.0,97,-99.99,,,-99.99,,2013-03-23 09:42:00,
2013-03-23 02:52:00,35.0,35.0,30.40,ENE,70,6.0,7.0,97,-99.99,,,-99.99,,2013-03-23 09:52:00,
2013-03-23 03:00:00,35.0,35.0,30.40,East,80,6.0,7.0,99,-99.99,,,-99.99,,2013-03-23 10:00:00,
2013-03-23 03:22:00,35.0,35.0,30.40,East,80,6.0,7.0,99,-99.99,,,-99.99,,2013-03-23 10:22:00,
2013-03-23 03:33:00,35.0,35.0,30.40,East,80,6.0,7.0,99,-99.99,,,-99.99,,2013-03-23 10:33:00,
2013-03-23 03:41:00,35.0,35.0,30.40,East,80,6.0,7.0,99,-99.99,,,-99.99,,2013-03-23 10:41:00,
2013-03-23 03:51:00,35.0,35.0,30.40,East,80,6.0,7.0,99,-99.99,,,-99.99,,2013-03-23 10:51:00,
2013-03-23 04:00:00,35.0,35.0,30.39,East,90,7.0,9.0,100,-99.99,,,-99.99,,2013-03-23 11:00:00,
2013-03-23 04:21:00,35.0,35.0,30.39,East,90,7.0,9.0,100,-99.99,,,-99.99,,2013-03-23 11:21:00,
2013-03-23 04:32:00,35.0,35.0,30.39,East,90,7.0,9.0,100,-99.99,,,-99.99,,2013-03-23 11:32:00,
2013-03-23 04:41:00,35.0,35.0,30.39,East,90,7.0,9.0,100,-99.99,,,-99.99,,2013-03-23 11:41:00,
2013-03-23 04:51:00,35.0,35.0,30.39,East,90,7.0,9.0,100,-99.99,,,-99.99,,2013-03-23 11:51:00,
2013-03-23 05:00:00,34.0,34.0,30.38,East,80,7.0,9.0,100,-99.99,,,-99.99,,2013-03-23 12:00:00,
2013-03-23 05:21:00,34.0,34.0,30.38,East,80,7.0,9.0,100,-99.99,,,-99.99,,2013-03-23 12:21:00,
2013-03-23 05:32:00,34.0,34.0,30.38,East,80,7.0,9.0,100,-99.99,,,-99.99,,2013-03-23 12:32:00,
2013-03-23 05:41:00,34.0,34.0,30.38,East,80,7.0,9.0,100,-99.99,,,-99.99,,2013-03-23 12:41:00,
2013-03-23 05:51:00,34.0,34.0,30.38,East,80,7.0,9.0,100,-99.99,,,-99.99,,2013-03-23 12:51:00,
2013-03-23 06:00:00,35.0,35.0,30.38,East,90,8.0,10.0,100,-99.99,,,-99.99,,2013-03-23 13:00:00,
2013-03-23 06:11:00,35.0,35.0,30.38,East,90,8.0,10.0,100,-99.99,,,-99.99,,2013-03-23 13:11:00,
2013-03-23 06:21:00,35.0,35.0,30.38,East,90,8.0,10.0,100,-99.99,,,-99.99,,2013-03-23 13:21:00,
2013-03-23 06:31:00,35.0,35.0,30.38,East,90,8.0,10.0,100,-99.99,,,-99.99,,2013-03-23 13:31:00,
2013-03-23 06:41:00,35.0,35.0,30.38,East,90,8.0,10.0,100,-99.99,,,-99.99,,2013-03-23 13:41:00,
2013-03-23 06:52:00,35.0,35.0,30.38,East,90,8.0,10.0,100,-99.99,,,-99.99,,2013-03-23 13:52:00,
2013-03-23 07:00:00,35.0,35.0,30.37,East,90,9.0,10.0,100,-99.99,,,-99.99,,2013-03-23 14:00:00,
2013-03-23 07:21:00,35.0,35.0,30.37,East,90,9.0,10.0,100,-99.99,,,-99.99,,2013-03-23 14:21:00,
2013-03-23 07:31:00,35.0,35.0,30.37,East,90,9.0,10.0,100,-99.99,,,-99.99,,2013-03-23 14:31:00,
2013-03-23 07:41:00,35.0,35.0,30.37,East,90,9.0,10.0,100,-99.99,,,-99.99,,2013-03-23 14:41:00,
2013-03-23 07:52:00,35.0,35.0,30.37,East,90,9.0,10.0,100,-99.99,,,-99.99,,2013-03-23 14:52:00,
2013-03-23 08:00:00,35.0,35.0,30.38,East,90,9.0,11.0,99,-99.99,,,-99.99,,2013-03-23 15:00:00,
2013-03-23 08:11:00,35.0,35.0,30.38,East,90,9.0,11.0,99,-99.99,,,-99.99,,2013-03-23 15:11:00,
2013-03-23 08:21:00,35.0,35.0,30.38,East,90,9.0,11.0,99,-99.99,,,-99.99,,2013-03-23 15:21:00,
2013-03-23 08:32:00,35.0,35.0,30.38,East,90,9.0,11.0,99,-99.99,,,-99.99,,2013-03-23 15:32:00,
2013-03-23 08:42:00,35.0,35.0,30.38,East,90,9.0,11.0,99,-99.99,,,-99.99,,2013-03-23 15:42:00,
2013-03-23 08:52:00,35.0,35.0,30.38,East,90,9.0,11.0,99,-99.99,,,-99.99,,2013-03-23 15:52:00,
2013-03-23 09:00:00,37.0,36.0,30.38,East,80,8.0,10.0,95,-99.99,,,-99.99,,2013-03-23 16:00:00,
2013-03-23 09:22:00,37.0,36.0,30.38,East,80,8.0,10.0,95,-99.99,,,-99.99,,2013-03-23 16:22:00,
2013-03-23 09:32:00,37.0,36.0,30.38,East,80,8.0,10.0,95,-99.99,,,-99.99,,2013-03-23 16:32:00,
2013-03-23 09:42:00,37.0,36.0,30.38,East,80,8.0,10.0,95,-99.99,,,-99.99,,2013-03-23 16:42:00,
2013-03-23 09:52:00,37.0,36.0,30.38,East,80,8.0,10.0,95,-99.99,,,-99.99,,2013-03-23 16:52:00,
2013-03-23 10:00:00,39.0,36.0,30.38,East,80,7.0,8.0,88,-99.99,,,-99.99,,2013-03-23 17:00:00,
2013-03-23 10:11:00,39.0,36.0,30.38,East,80,7.0,8.0,88,-99.99,,,-99.99,,2013-03-23 17:11:00,
2013-03-23 10:21:00,39.0,36.0,30.38,East,80,7.0,8.0,88,-99.99,,,-99.99,,2013-03-23 17:21:00,
2013-03-23 10:31:00,39.0,36.0,30.38,East,80,7.0,8.0,88,-99.99,,,-99.99,,2013-03-23 17:31:00,
2013-03-23 10:42:00,39.0,36.0,30.38,East,80,7.0,8.0,88,-99.99,,,-99.99,,2013-03-23 17:42:00,
2013-03-23 10:51:00,39.0,36.0,30.38,East,80,7.0,8.0,88,-99.99,,,-99.99,,2013-03-23 17:51:00,
2013-03-23 11:00:00,41.0,35.0,30.39,ENE,70,8.0,10.0,79,-99.99,,,-99.99,,2013-03-23 18:00:00,
2013-03-23 11:21:00,41.0,35.0,30.39,ENE,70,8.0,10.0,79,-99.99,,,-99.99,,2013-03-23 18:21:00,
2013-03-23 11:31:00,41.0,35.0,30.39,ENE,70,8.0,10.0,79,-99.99,,,-99.99,,2013-03-23 18:31:00,
2013-03-23 11:41:00,41.0,35.0,30.39,ENE,70,8.0,10.0,79,-99.99,,,-99.99,,2013-03-23 18:41:00,
2013-03-23 11:51:00,41.0,35.0,30.39,ENE,70,8.0,10.0,79,-99.99,,,-99.99,,2013-03-23 18:51:00,
2013-03-23 12:00:00,43.0,34.0,30.37,ENE,70,7.0,9.0,70,-99.99,,,-99.99,,2013-03-23 19:00:00,
2013-03-23 12:21:00,43.0,34.0,30.37,ENE,70,7.0,9.0,70,-99.99,,,-99.99,,2013-03-23 19:21:00,
2013-03-23 12:31:00,43.0,34.0,30.37,ENE,70,7.0,9.0,70,-99.99,,,-99.99,,2013-03-23 19:31:00,
2013-03-23 12:42:00,43.0,34.0,30.37,ENE,70,7.0,9.0,70,-99.99,,,-99.99,,2013-03-23 19:42:00,
2013-03-23 12:52:00,43.0,34.0,30.37,ENE,70,7.0,9.0,70,-99.99,,,-99.99,,2013-03-23 19:52:00,
2013-03-23 13:11:00,44.0,31.0,30.35,NNW,330,10.0,11.0,59,-99.99,,,-99.99,,2013-03-23 20:11:00,
2013-03-23 13:21:00,44.0,31.0,30.35,NNW,330,10.0,11.0,59,-99.99,,,-99.99,,2013-03-23 20:21:00,
2013-03-23 13:31:00,44.0,31.0,30.35,NNW,330,10.0,11.0,59,-99.99,,,-99.99,,2013-03-23 20:31:00,
2013-03-23 13:42:00,44.0,31.0,30.35,NNW,330,10.0,11.0,59,-99.99,,,-99.99,,2013-03-23 20:42:00,
2013-03-23 13:52:00,44.0,31.0,30.35,NNW,330,10.0,11.0,59,-99.99,,,-99.99,,2013-03-23 20:52:00,
2013-03-23 14:21:00,44.0,31.0,30.35,NNW,330,11.0,14.0,60,-99.99,,,-99.99,,2013-03-23 21:21:00,
2013-03-23 14:32:00,44.0,31.0,30.35,NNW,330,11.0,14.0,60,-99.99,,,-99.99,,2013-03-23 21:32:00,
2013-03-23 14:42:00,44.0,31.0,30.35,NNW,330,11.0,14.0,60,-99.99,,,-99.99,,2013-03-23 21:42:00,
2013-03-23 15:00:00,44.0,32.0,30.33,NNW,330,13.0,14.0,61,-99.99,,,-99.99,,2013-03-23 22:00:00,
2013-03-23 15:12:00,44.0,32.0,30.33,NNW,330,13.0,14.0,61,-99.99,,,-99.99,,2013-03-23 22:12:00,
2013-03-23 15:22:00,44.0,32.0,30.33,NNW,330,13.0,14.0,61,-99.99,,,-99.99,,2013-03-23 22:22:00,
2013-03-23 15:32:00,44.0,32.0,30.33,NNW,330,13.0,14.0,61,-99.99,,,-99.99,,2013-03-23 22:32:00,
2013-03-23 15:42:00,44.0,32.0,30.33,NNW,330,13.0,14.0,61,-99.99,,,-99.99,,2013-03-23 22:42:00,
2013-03-23 15:52:00,44.0,32.0,30.33,NNW,330,13.0,14.0,61,-99.99,,,-99.99,,2013-03-23 22:52:00,
2013-03-23 16:00:00,45.0,34.0,30.32,NNW,340,15.0,16.0,65,-99.99,,,-99.99,,2013-03-23 23:00:00,
2013-03-23 16:12:00,45.0,34.0,30.32,NNW,340,15.0,16.0,65,-99.99,,,-99.99,,2013-03-23 23:12:00,
2013-03-23 16:21:00,45.0,34.0,30.32,NNW,340,15.0,16.0,65,-99.99,,,-99.99,,2013-03-23 23:21:00,
2013-03-23 16:32:00,45.0,34.0,30.32,NNW,340,15.0,16.0,65,-99.99,,,-99.99,,2013-03-23 23:32:00,
2013-03-23 16:41:00,45.0,34.0,30.32,NNW,340,15.0,16.0,65,-99.99,,,-99.99,,2013-03-23 23:41:00,
2013-03-23 16:51:00,45.0,34.0,30.32,NNW,340,15.0,16.0,65,-99.99,,,-99.99,,2013-03-23 23:51:00,
2013-03-23 17:00:00,45.0,33.0,30.31,North,350,16.0,18.0,62,-99.99,,,-99.99,,2013-03-24 00:00:00,
2013-03-23 17:21:00,45.0,33.0,30.31,North,350,16.0,18.0,62,-99.99,,,-99.99,,2013-03-24 00:21:00,
2013-03-23 17:32:00,45.0,33.0,30.31,North,350,16.0,18.0,62,-99.99,,,-99.99,,2013-03-24 00:32:00,
2013-03-23 17:41:00,45.0,33.0,30.31,North,350,16.0,18.0,62,-99.99,,,-99.99,,2013-03-24 00:41:00,
2013-03-23 17:51:00,45.0,33.0,30.31,North,350,16.0,18.0,62,-99.99,,,-99.99,,2013-03-24 00:51:00,
2013-03-23 18:00:00,45.0,34.0,30.29,North,360,18.0,20.0,64,-99.99,,,-99.99,,2013-03-24 01:00:00,
2013-03-23 18:41:00,45.0,34.0,30.29,North,360,18.0,20.0,64,-99.99,,,-99.99,,2013-03-24 01:41:00,
2013-03-23 18:52:00,45.0,34.0,30.29,North,360,18.0,20.0,64,-99.99,,,-99.99,,2013-03-24 01:52:00,
2013-03-23 19:00:00,45.0,36.0,30.29,North,350,16.0,18.0,70,-99.99,,,-99.99,,2013-03-24 02:00:00,
2013-03-23 19:21:00,45.0,36.0,30.29,North,350,16.0,18.0,70,-99.99,,,-99.99,,2013-03-24 02:21:00,
2013-03-23 19:32:00,45.0,36.0,30.29,North,350,16.0,18.0,70,-99.99,,,-99.99,,2013-03-24 02:32:00,
2013-03-23 19:52:00,45.0,36.0,30.29,North,350,16.0,18.0,70,-99.99,,,-99.99,,2013-03-24 02:52:00,
2013-03-23 20:00:00,45.0,35.0,30.29,NNE,30,8.0,10.0,69,-99.99,,,-99.99,,2013-03-24 03:00:00,
2013-03-23 20:21:00,45.0,35.0,30.29,NNE,30,8.0,10.0,69,-99.99,,,-99.99,,2013-03-24 03:21:00,
2013-03-23 20:32:00,45.0,35.0,30.29,NNE,30,8.0,10.0,69,-99.99,,,-99.99,,2013-03-24 03:32:00,
2013-03-23 20:42:00,45.0,35.0,30.29,NNE,30,8.0,10.0,69,-99.99,,,-99.99,,2013-03-24 03:42:00,
2013-03-23 20:52:00,45.0,35.0,30.29,NNE,30,8.0,10.0,69,-99.99,,,-99.99,,2013-03-24 03:52:00,
2013-03-23 21:00:00,45.0,36.0,30.29,NNE,20,3.0,3.0,70,-99.99,,,-99.99,,2013-03-24 04:00:00,
2013-03-23 21:12:00,45.0,36.0,30.29,NNE,20,3.0,3.0,70,-99.99,,,-99.99,,2013-03-24 04:12:00,
2013-03-23 21:22:00,45.0,36.0,30.29,NNE,20,3.0,3.0,70,-99.99,,,-99.99,,2013-03-24 04:22:00,
2013-03-23 21:32:00,45.0,36.0,30.29,NNE,20,3.0,3.0,70,-99.99,,,-99.99,,2013-03-24 04:32:00,
2013-03-23 21:42:00,45.0,36.0,30.29,NNE,20,3.0,3.0,70,-99.99,,,-99.99,,2013-03-24 04:42:00,
2013-03-23 21:52:00,45.0,36.0,30.29,NNE,20,3.0,3.0,70,-99.99,,,-99.99,,2013-03-24 04:52:00,
2013-03-23 22:00:00,43.0,35.0,30.29,East,90,3.0,3.0,74,-99.99,,,-99.99,,2013-03-24 05:00:00,
2013-03-23 22:22:00,43.0,35.0,30.29,East,90,3.0,3.0,74,-99.99,,,-99.99,,2013-03-24 05:22:00,
2013-03-23 22:32:00,43.0,35.0,30.29,East,90,3.0,3.0,74,-99.99,,,-99.99,,2013-03-24 05:32:00,
2013-03-23 22:41:00,43.0,35.0,30.29,East,90,3.0,3.0,74,-99.99,,,-99.99,,2013-03-24 05:41:00,
2013-03-23 22:51:00,43.0,35.0,30.29,East,90,3.0,3.0,74,-99.99,,,-99.99,,2013-03-24 05:51:00,
2013-03-23 23:00:00,42.0,36.0,30.27,ENE,70,6.0,7.0,81,-99.99,,,-99.99,,2013-03-24 06:00:00,
2013-03-23 23:21:00,42.0,36.0,30.27,ENE,70,6.0,7.0,81,-99.99,,,-99.99,,2013-03-24 06:21:00,
2013-03-23 23:32:00,42.0,36.0,30.27,ENE,70,6.0,7.0,81,-99.99,,,-99.99,,2013-03-24 06:32:00,
2013-03-23 23:41:00,42.0,36.0,30.27,ENE,70,6.0,7.0,81,-99.99,,,-99.99,,2013-03-24 06:41:00,
2013-03-23 23:51:00,42.0,36.0,30.27,ENE,70,6.0,7.0,81,-99.99,,,-99.99,,2013-03-24 06:51:00,